TimeCST,TemperatureF,Dew PointF,Humidity,Sea Level PressureIn,VisibilityMPH,Wind Direction,Wind SpeedMPH,Gust SpeedMPH,PrecipitationIn,Events,Conditions,WindDirDegrees,DateUTC
12:09 AM,23.0,17.6,80,29.92,7.0,West,9.2,-,N/A,,Overcast,270,2012-12-07 06:09:00
12:30 AM,23.0,17.6,80,29.92,10.0,WNW,9.2,-,N/A,,Overcast,290,2012-12-07 06:30:00
12:50 AM,23.0,17.6,80,29.93,10.0,WNW,13.8,18.4,N/A,,Overcast,300,2012-12-07 06:50:00
1:09 AM,23.0,17.6,80,29.93,10.0,WNW,10.4,20.7,N/A,,Overcast,290,2012-12-07 07:09:00
1:30 AM,23.0,17.6,80,29.94,10.0,West,10.4,18.4,N/A,,Overcast,280,2012-12-07 07:30:00
1:50 AM,23.0,17.6,80,29.95,10.0,West,9.2,-,N/A,,Overcast,280,2012-12-07 07:50:00
2:09 AM,23.0,17.6,80,29.95,10.0,WNW,10.4,-,N/A,,Overcast,290,2012-12-07 08:09:00
2:30 AM,23.0,17.6,80,29.95,10.0,WNW,6.9,-,N/A,,Overcast,300,2012-12-07 08:30:00
2:50 AM,23.0,17.6,80,29.95,10.0,West,5.8,-,N/A,Snow,Light Snow,280,2012-12-07 08:50:00
3:09 AM,23.0,17.6,80,29.95,10.0,WNW,3.5,-,N/A,,Overcast,290,2012-12-07 09:09:00
3:30 AM,23.0,17.6,80,29.94,10.0,NW,5.8,-,N/A,,Overcast,310,2012-12-07 09:30:00
3:50 AM,23.0,17.6,80,29.94,10.0,Calm,Calm,-,N/A,,Overcast,0,2012-12-07 09:50:00
4:09 AM,23.0,17.6,80,29.94,10.0,WSW,3.5,-,N/A,,Overcast,240,2012-12-07 10:09:00
4:30 AM,23.0,17.6,80,29.93,10.0,West,3.5,-,N/A,,Overcast,260,2012-12-07 10:30:00
4:50 AM,23.0,17.6,80,29.93,10.0,Calm,Calm,-,N/A,,Overcast,0,2012-12-07 10:50:00
5:09 AM,23.0,17.6,80,29.94,10.0,West,4.6,-,N/A,,Overcast,280,2012-12-07 11:09:00
5:30 AM,23.0,15.8,74,29.93,10.0,WNW,6.9,-,N/A,,Overcast,290,2012-12-07 11:30:00
5:50 AM,23.0,15.8,74,29.95,10.0,West,3.5,-,N/A,,Overcast,280,2012-12-07 11:50:00
6:09 AM,23.0,15.8,74,29.95,10.0,West,8.1,-,N/A,,Overcast,280,2012-12-07 12:09:00
6:30 AM,23.0,15.8,74,29.95,10.0,WNW,8.1,-,N/A,,Overcast,290,2012-12-07 12:30:00
6:50 AM,23.0,15.8,74,29.96,10.0,WNW,5.8,-,N/A,,Overcast,300,2012-12-07 12:50:00
7:09 AM,23.0,14.0,68,29.97,10.0,WNW,9.2,-,N/A,,Overcast,290,2012-12-07 13:09:00
7:30 AM,23.0,14.0,68,29.97,10.0,WNW,6.9,-,N/A,,Overcast,290,2012-12-07 13:30:00
7:50 AM,23.0,15.8,74,29.97,10.0,West,9.2,-,N/A,,Overcast,280,2012-12-07 13:50:00
8:09 AM,23.0,15.8,74,29.98,10.0,West,6.9,-,N/A,,Overcast,270,2012-12-07 14:09:00
8:30 AM,23.0,15.8,74,29.98,10.0,West,5.8,-,N/A,,Overcast,270,2012-12-07 14:30:00
8:50 AM,23.0,14.0,68,29.98,10.0,West,6.9,-,N/A,,Overcast,270,2012-12-07 14:50:00
9:09 AM,23.0,14.0,68,29.98,10.0,NNW,8.1,-,N/A,,Mostly Cloudy,330,2012-12-07 15:09:00
9:30 AM,23.0,14.0,68,29.98,10.0,WNW,3.5,-,N/A,,Overcast,290,2012-12-07 15:30:00
9:50 AM,23.0,15.8,74,29.99,10.0,West,3.5,-,N/A,,Overcast,280,2012-12-07 15:50:00
10:09 AM,23.0,15.8,74,30.00,10.0,NW,5.8,-,N/A,,Overcast,320,2012-12-07 16:09:00
10:30 AM,23.0,15.8,74,30.01,10.0,NW,5.8,-,N/A,,Overcast,310,2012-12-07 16:30:00
10:50 AM,23.0,15.8,74,30.00,10.0,NNW,4.6,-,N/A,,Overcast,340,2012-12-07 16:50:00
11:09 AM,23.0,14.0,68,30.00,10.0,NNW,8.1,-,N/A,,Mostly Cloudy,330,2012-12-07 17:09:00
11:30 AM,24.8,14.0,64,30.00,10.0,NNW,8.1,-,N/A,,Scattered Clouds,330,2012-12-07 17:30:00
11:49 AM,24.8,14.0,64,30.00,10.0,West,6.9,-,N/A,,Scattered Clouds,280,2012-12-07 17:49:00
12:10 PM,24.8,15.8,69,29.99,10.0,NW,5.8,-,N/A,,Mostly Cloudy,310,2012-12-07 18:10:00
12:29 PM,24.8,15.8,69,29.99,10.0,NW,3.5,-,N/A,,Mostly Cloudy,320,2012-12-07 18:29:00
12:49 PM,24.8,15.8,69,29.98,10.0,NNW,6.9,-,N/A,,Scattered Clouds,340,2012-12-07 18:49:00
1:10 PM,24.8,14.0,64,29.98,10.0,West,5.8,-,N/A,,Scattered Clouds,280,2012-12-07 19:10:00
1:29 PM,24.8,14.0,64,29.99,10.0,NNW,4.6,-,N/A,,Mostly Cloudy,330,2012-12-07 19:29:00
1:49 PM,23.0,14.0,68,29.99,10.0,NW,5.8,-,N/A,,Scattered Clouds,310,2012-12-07 19:49:00
2:10 PM,23.0,14.0,68,29.99,10.0,NNW,5.8,-,N/A,,Clear,330,2012-12-07 20:10:00
2:29 PM,23.0,14.0,68,30.00,10.0,NW,5.8,-,N/A,,Clear,310,2012-12-07 20:29:00
2:49 PM,23.0,14.0,68,30.01,10.0,NW,4.6,-,N/A,,Clear,310,2012-12-07 20:49:00
3:10 PM,23.0,14.0,68,30.01,10.0,NNW,6.9,-,N/A,,Clear,330,2012-12-07 21:10:00
3:29 PM,23.0,14.0,68,30.01,10.0,NNW,5.8,-,N/A,,Clear,330,2012-12-07 21:29:00
3:49 PM,23.0,14.0,68,30.02,10.0,NNW,3.5,-,N/A,,Clear,340,2012-12-07 21:49:00
4:10 PM,21.2,12.2,68,30.01,10.0,NNW,4.6,-,N/A,,Clear,330,2012-12-07 22:10:00
4:29 PM,21.2,12.2,68,30.02,10.0,NNW,5.8,-,N/A,,Clear,330,2012-12-07 22:29:00
4:49 PM,21.2,12.2,68,30.02,10.0,NNW,8.1,-,N/A,,Clear,330,2012-12-07 22:49:00
5:09 PM,21.2,12.2,68,30.03,10.0,NNW,3.5,-,N/A,,Clear,340,2012-12-07 23:09:00
5:29 PM,21.2,12.2,68,30.03,10.0,NNW,4.6,-,N/A,,Clear,340,2012-12-07 23:29:00
5:50 PM,19.4,12.2,74,30.03,10.0,North,3.5,-,N/A,,Clear,360,2012-12-07 23:50:00
6:09 PM,19.4,10.4,68,30.04,10.0,North,4.6,-,N/A,,Clear,360,2012-12-08 00:09:00
6:29 PM,17.6,10.4,73,30.05,10.0,North,3.5,-,N/A,,Clear,350,2012-12-08 00:29:00
7:09 PM,17.6,10.4,73,30.05,10.0,North,3.5,-,N/A,,Clear,360,2012-12-08 01:09:00
7:29 PM,17.6,8.6,68,30.04,10.0,NNE,3.5,-,N/A,,Clear,30,2012-12-08 01:29:00
7:50 PM,15.8,8.6,73,30.04,10.0,North,3.5,-,N/A,,Clear,10,2012-12-08 01:50:00
8:29 PM,15.8,8.6,73,30.03,10.0,Calm,Calm,-,N/A,,Clear,0,2012-12-08 02:29:00
8:50 PM,15.8,8.6,73,30.03,10.0,North,3.5,-,N/A,,Clear,10,2012-12-08 02:50:00
9:09 PM,14.0,8.6,79,30.03,10.0,North,3.5,-,N/A,,Clear,360,2012-12-08 03:09:00
9:30 PM,12.2,6.8,79,30.03,10.0,Calm,Calm,-,N/A,,Clear,0,2012-12-08 03:30:00
9:49 PM,12.2,6.8,79,30.03,10.0,Calm,Calm,-,N/A,,Clear,0,2012-12-08 03:49:00
10:09 PM,12.2,6.8,79,30.03,10.0,Calm,Calm,-,N/A,,Clear,0,2012-12-08 04:09:00
10:30 PM,10.4,5.0,79,30.03,10.0,Calm,Calm,-,N/A,,Clear,0,2012-12-08 04:30:00
10:49 PM,8.6,3.2,79,30.04,10.0,Calm,Calm,-,N/A,,Clear,0,2012-12-08 04:49:00
11:09 PM,10.4,6.8,85,30.05,10.0,Calm,Calm,-,N/A,,Mostly Cloudy,0,2012-12-08 05:09:00
11:30 PM,10.4,6.8,85,30.05,10.0,Calm,Calm,-,N/A,,Overcast,0,2012-12-08 05:30:00
11:49 PM,10.4,6.8,85,30.05,10.0,Calm,Calm,-,N/A,,Overcast,0,2012-12-08 05:49:00